Philadelphia, Tennessee, United States (37846)
Lat: 35.68N, Lon: 84.4W
Wx Zone: TNZ068
Local Info
Past Weather Observations for Today

NOTE: This archive is for the closest National Weather Service station to Philadelphia. Information may differ from the station used for current weather conditions.

Click here for Long-term Archive

Time Weather Temperature Dewpoint Humidity Pressure Winds Precip Visibility
14:53
Mostly Cloudy
72°F / 22°C 52°F / 11°C 50% 29.86 in
(1011 mb)
W 15 mph
(W 24 kph)
- 10SM
13:53
Mostly Cloudy
70°F / 21°C 52°F / 11°C 53% 29.89 in
(1012 mb)
WNW 10.4 mph
(WNW 17 kph)
- 10SM
12:53
Mostly Cloudy
68°F / 20°C 54°F / 12°C 60% 29.89 in
(1012 mb)
SSW 11.5 mph
(SSW 19 kph)
- 10SM
11:53
Overcast
66°F / 19°C 57°F / 14°C 73% 29.92 in
(1013 mb)
Variable 6.9 mph
(Variable 11 kph)
- 10SM
11:37
Overcast
64°F / 18°C 57°F / 14°C 78% 29.92 in
(1013 mb)
SW 4.6 mph
(SW 7 kph)
- 10SM
10:50
Overcast
64°F / 18°C 57°F / 14°C 78% 29.92 in
(1013 mb)
SW 3.5 mph
(SW 6 kph)
- 10SM
09:53
Mostly Cloudy
63°F / 17°C 57°F / 14°C 83% 29.92 in
(1013 mb)
Calm 0.00 in
(0.00 mm)
10SM
08:53
Overcast
Light Rain
61°F / 16°C 55°F / 13°C 83% 29.92 in
(1013 mb)
NNW 8.1 mph
(NNW 13 kph)
0.13 in
(3.30 mm)
4SM
08:50
Overcast
Light Rain
59°F / 15°C 55°F / 13°C 88% 29.92 in
(1013 mb)
NW 8.1 mph
(NW 13 kph)
0.13 in
(3.30 mm)
4SM
08:26
Overcast
Light Rain
61°F / 16°C 57°F / 14°C 88% 29.92 in
(1013 mb)
NW 10.4 mph
(NW 17 kph)
0.05 in
(1.27 mm)
1SM
08:22
Overcast
Light Rain
61°F / 16°C 59°F / 15°C 94% 29.92 in
(1013 mb)
WNW 6.9 mph
(WNW 11 kph)
0.04 in
(1.02 mm)
1 1/2SM
08:03
Overcast
Light Rain
61°F / 16°C 59°F / 15°C 94% 29.92 in
(1013 mb)
SSW 8.1 mph
(SSW 13 kph)
0.01 in
(0.25 mm)
3SM
07:53
Overcast
Light Rain
61°F / 16°C 59°F / 15°C 94% 29.92 in
(1013 mb)
W 9.2 mph
(W 15 kph)
0.00 in
(0.00 mm)
2SM
07:46
Overcast
Light Rain
61°F / 16°C 59°F / 15°C 94% 29.92 in
(1013 mb)
W 11.5 mph
(W 19 kph)
0.00 in
(0.00 mm)
2SM
06:53
Overcast
Fog And Mist
61°F / 16°C 59°F / 15°C 94% 29.89 in
(1012 mb)
SW 6.9 mph
(SW 11 kph)
0.00 in
(0.00 mm)
4SM
05:53
Overcast
63°F / 17°C 59°F / 15°C 88% 29.89 in
(1012 mb)
W 3.5 mph
(W 6 kph)
- 10SM
05:37
Overcast
61°F / 16°C 59°F / 15°C 94% 29.89 in
(1012 mb)
W 3.5 mph
(W 6 kph)
- 9SM
05:00
Overcast
63°F / 17°C 61°F / 16°C 94% 29.89 in
(1012 mb)
Calm - 9SM
04:53
Mostly Cloudy
63°F / 17°C 59°F / 15°C 88% 29.89 in
(1012 mb)
SW 3.5 mph
(SW 6 kph)
- 10SM
03:53
Overcast
63°F / 17°C 59°F / 15°C 88% 29.89 in
(1012 mb)
Calm - 10SM
03:22
Overcast
63°F / 17°C 59°F / 15°C 88% 29.89 in
(1012 mb)
Calm - 10SM
02:53
Overcast
63°F / 17°C 59°F / 15°C 88% 29.89 in
(1012 mb)
Calm - 10SM
01:53
Overcast
61°F / 16°C 59°F / 15°C 94% 29.89 in
(1012 mb)
Calm 0.00 in
(0.00 mm)
10SM
01:47
Overcast
61°F / 16°C 59°F / 15°C 94% 29.89 in
(1012 mb)
Calm 0.00 in
(0.00 mm)
10SM
00:53
Overcast
Light Rain
63°F / 17°C 59°F / 15°C 88% 29.89 in
(1012 mb)
Calm 0.00 in
(0.00 mm)
10SM
00:33
Overcast
Light Rain
61°F / 16°C 59°F / 15°C 94% 29.92 in
(1013 mb)
NW 3.5 mph
(NW 6 kph)
0.00 in
(0.00 mm)
10SM
Time Weather Temperature Dewpoint Humidity Pressure Winds Precip Visibility


Weather for websites

WeatherForYou.com, LLC is not responsible for any damages or problems caused by this service. Current weather conditions are obtained from the closest station including government and personal stations which may have varying degrees of accuracy. Weather forecasts are derived from the NOAA NDFD. Like all things, this site belongs to Jesus Christ... He just trusts us to maintain it. If you have any questions or comments email webmaster@weatherforyou.com

Copyright © 2016, WeatherForYou.com LLC. All rights reserved.